| time (UTC) | temp F | wind direction | speed MPH | gust MPH | rain 1hr in | rain 24hr in | rain mn in | humidity % | barometer mb |
| 20260504060104 | 45 | 312 | 0.0 | 0.0 | 0.00 | 0.00 | 0.00 | 80 | 100.5 |
| 20260504050104 | 48 | 29 | 0.0 | 0.0 | 0.00 | 0.00 | 0.00 | 76 | 100.6 |
| 20260504045104 | 48 | 248 | 0.0 | 0.0 | 0.00 | 0.00 | 0.00 | 74 | 100.6 |
| 20260504044104 | 49 | 272 | 0.0 | 0.0 | 0.00 | 0.00 | 0.00 | 76 | 100.6 |
| 20260504043104 | 49 | 325 | 0.0 | 0.0 | 0.00 | 0.00 | 0.00 | 75 | 100.6 |
| 20260504042104 | 50 | 51 | 0.0 | 0.0 | 0.00 | 0.00 | 0.00 | 73 | 100.6 |
| 20260504041104 | 50 | 209 | 0.0 | 0.0 | 0.00 | 0.00 | 0.00 | 73 | 100.6 |
| 20260504040104 | 51 | 8 | 0.0 | 0.0 | 0.00 | 0.00 | 0.00 | 71 | 100.6 |
| 20260504035104 | 52 | 21 | 0.0 | 0.0 | 0.00 | 0.00 | 0.00 | 68 | 100.6 |
| 20260504034104 | 52 | 50 | 0.0 | 0.0 | 0.00 | 0.00 | 0.00 | 70 | 100.7 |
| 20260504033104 | 53 | 5 | 0.0 | 0.0 | 0.00 | 0.00 | 0.00 | 67 | 100.7 |
| 20260504032104 | 54 | 144 | 0.0 | 1.0 | 0.00 | 0.00 | 0.00 | 66 | 100.7 |
| 20260504031104 | 54 | 82 | 0.0 | 0.0 | 0.00 | 0.00 | 0.00 | 65 | 100.7 |
| 20260504030104 | 55 | 92 | 0.0 | 0.0 | 0.00 | 0.00 | 0.00 | 65 | 100.7 |
| 20260504025104 | 56 | 98 | 0.0 | 0.0 | 0.00 | 0.00 | 0.00 | 65 | 100.7 |
| 20260504024104 | 57 | 109 | 0.0 | 0.0 | 0.00 | 0.00 | 0.00 | 60 | 100.6 |
| 20260504023104 | 58 | 123 | 0.0 | 0.0 | 0.00 | 0.00 | 0.00 | 55 | 100.6 |
| 20260504022104 | 59 | 85 | 0.0 | 0.0 | 0.00 | 0.00 | 0.00 | 52 | 100.6 |
| 20260504021104 | 60 | 79 | 0.0 | 0.0 | 0.00 | 0.00 | 0.00 | 50 | 100.6 |
| 20260504020104 | 62 | 81 | 0.0 | 0.0 | 0.00 | 0.00 | 0.00 | 48 | 100.6 |
| 20260504015104 | 63 | 113 | 0.0 | 0.0 | 0.00 | 0.00 | 0.00 | 45 | 100.6 |
| 20260504014104 | 64 | 132 | 0.0 | 0.0 | 0.00 | 0.00 | 0.00 | 45 | 100.6 |
| 20260504013104 | 66 | 63 | 0.0 | 0.0 | 0.00 | 0.00 | 0.00 | 42 | 100.6 |
| 20260504012104 | 67 | 38 | 0.0 | 1.0 | 0.00 | 0.00 | 0.00 | 40 | 100.6 |
| 20260504011104 | 68 | 37 | 0.0 | 1.0 | 0.00 | 0.00 | 0.00 | 39 | 100.6 |
| 20260504010104 | 69 | 133 | 0.0 | 1.0 | 0.00 | 0.00 | 0.00 | 38 | 100.6 |
| 20260504005104 | 70 | 134 | 0.0 | 1.0 | 0.00 | 0.00 | 0.00 | 37 | 100.5 |
| 20260504004104 | 70 | 131 | 0.0 | 1.0 | 0.00 | 0.00 | 0.00 | 36 | 100.5 |
| 20260504003104 | 71 | 134 | 0.0 | 1.0 | 0.00 | 0.00 | 0.00 | 36 | 100.5 |
| 20260504002104 | 72 | 124 | 1.0 | 2.0 | 0.00 | 0.00 | 0.00 | 35 | 100.5 |
| 20260504001104 | 74 | 126 | 0.0 | 1.0 | 0.00 | 0.00 | 0.00 | 36 | 100.5 |
| 20260504000104 | 74 | 130 | 0.0 | 1.0 | 0.00 | 0.00 | 0.00 | 34 | 100.5 |
| 20260503235104 | 74 | 104 | 1.0 | 2.0 | 0.00 | 0.00 | 0.00 | 34 | 100.5 |
| 20260503234104 | 74 | 131 | 0.0 | 1.0 | 0.00 | 0.00 | 0.00 | 34 | 100.5 |
| 20260503233104 | 74 | 127 | 1.0 | 1.0 | 0.00 | 0.00 | 0.00 | 35 | 100.5 |
| 20260503232104 | 74 | 128 | 0.0 | 1.0 | 0.00 | 0.00 | 0.00 | 35 | 100.5 |
| 20260503231104 | 75 | 133 | 1.0 | 2.0 | 0.00 | 0.00 | 0.00 | 34 | 100.5 |
| 20260503230104 | 76 | 133 | 1.0 | 3.0 | 0.00 | 0.00 | 0.00 | 33 | 100.5 |
| 20260503225104 | 75 | 132 | 1.0 | 1.0 | 0.00 | 0.00 | 0.00 | 34 | 100.5 |
| 20260503224104 | 76 | 131 | 1.0 | 2.0 | 0.00 | 0.00 | 0.00 | 35 | 100.5 |
| 20260503223104 | 76 | 132 | 1.0 | 2.0 | 0.00 | 0.00 | 0.00 | 35 | 100.5 |
| 20260503222104 | 76 | 133 | 1.0 | 1.0 | 0.00 | 0.00 | 0.00 | 37 | 100.5 |
| 20260503221104 | 76 | 130 | 1.0 | 3.0 | 0.00 | 0.00 | 0.00 | 36 | 100.5 |
| 20260503220104 | 76 | 132 | 1.0 | 2.0 | 0.00 | 0.00 | 0.00 | 35 | 100.5 |
| 20260503215104 | 76 | 130 | 1.0 | 1.0 | 0.00 | 0.00 | 0.00 | 35 | 100.5 |
| 20260503214104 | 76 | 131 | 2.0 | 2.0 | 0.00 | 0.00 | 0.00 | 35 | 100.5 |
| 20260503213104 | 77 | 132 | 1.0 | 1.0 | 0.00 | 0.00 | 0.00 | 35 | 100.5 |
| 20260503212104 | 77 | 130 | 1.0 | 2.0 | 0.00 | 0.00 | 0.00 | 37 | 100.5 |
| 20260503211104 | 77 | 123 | 1.0 | 2.0 | 0.00 | 0.00 | 0.00 | 37 | 100.5 |
| 20260503210104 | 77 | 130 | 1.0 | 1.0 | 0.00 | 0.00 | 0.00 | 38 | 100.5 |
| 20260503205104 | 77 | 132 | 1.0 | 1.0 | 0.00 | 0.00 | 0.00 | 37 | 100.5 |
| 20260503204104 | 76 | 133 | 1.0 | 2.0 | 0.00 | 0.00 | 0.00 | 38 | 100.5 |
| 20260503203104 | 76 | 130 | 1.0 | 3.0 | 0.00 | 0.00 | 0.00 | 36 | 100.5 |
| 20260503202104 | 77 | 129 | 1.0 | 1.0 | 0.00 | 0.00 | 0.00 | 38 | 100.5 |
| 20260503201104 | 76 | 127 | 1.0 | 2.0 | 0.00 | 0.00 | 0.00 | 36 | 100.5 |
| 20260503200104 | 76 | 130 | 1.0 | 2.0 | 0.00 | 0.00 | 0.00 | 37 | 100.5 |
| 20260503195104 | 76 | 7 | 1.0 | 2.0 | 0.00 | 0.00 | 0.00 | 37 | 100.5 |
| 20260503194104 | 75 | 83 | 2.0 | 3.0 | 0.00 | 0.00 | 0.00 | 39 | 100.5 |
| 20260503193104 | 75 | 130 | 1.0 | 2.0 | 0.00 | 0.00 | 0.00 | 40 | 100.5 |
| 20260503192104 | 74 | 102 | 1.0 | 2.0 | 0.00 | 0.00 | 0.00 | 40 | 100.5 |
| 20260503191104 | 73 | 134 | 0.0 | 1.0 | 0.00 | 0.00 | 0.00 | 43 | 100.5 |
| 20260503190104 | 73 | 23 | 2.0 | 4.0 | 0.00 | 0.00 | 0.00 | 42 | 100.5 |
| 20260503185104 | 72 | 103 | 1.0 | 2.0 | 0.00 | 0.00 | 0.00 | 44 | 100.6 |
| 20260503184104 | 72 | 6 | 1.0 | 3.0 | 0.00 | 0.00 | 0.00 | 43 | 100.6 |
| 20260503183104 | 71 | 334 | 2.0 | 4.0 | 0.00 | 0.00 | 0.00 | 44 | 100.6 |
| 20260503182104 | 71 | 36 | 2.0 | 3.0 | 0.00 | 0.00 | 0.00 | 44 | 100.6 |
| 20260503181104 | 70 | 41 | 1.0 | 2.0 | 0.00 | 0.00 | 0.00 | 44 | 100.6 |
| 20260503180104 | 69 | 108 | 3.0 | 4.0 | 0.00 | 0.00 | 0.00 | 45 | 100.6 |
| 20260503175104 | 68 | 44 | 1.0 | 2.0 | 0.00 | 0.00 | 0.00 | 45 | 100.7 |
| 20260503174104 | 68 | 41 | 2.0 | 4.0 | 0.00 | 0.00 | 0.00 | 46 | 100.7 |
| 20260503173104 | 67 | 14 | 1.0 | 2.0 | 0.00 | 0.00 | 0.00 | 46 | 100.7 |
| 20260503172104 | 66 | 51 | 2.0 | 4.0 | 0.00 | 0.00 | 0.00 | 47 | 100.7 |
| 20260503171104 | 66 | 58 | 2.0 | 3.0 | 0.00 | 0.00 | 0.00 | 47 | 100.7 |
| 20260503170104 | 66 | 60 | 3.0 | 5.0 | 0.00 | 0.00 | 0.00 | 46 | 100.7 |
| 20260503160104 | 62 | 60 | 2.0 | 3.0 | 0.00 | 0.00 | 0.00 | 49 | 100.7 |
| 20260503150104 | 59 | 40 | 2.0 | 3.0 | 0.00 | 0.00 | 0.00 | 51 | 100.8 |
| 20260503140104 | 55 | 34 | 2.0 | 3.0 | 0.00 | 0.00 | 0.00 | 54 | 100.9 |
| 20260503131104 | 52 | 343 | 3.0 | 5.0 | 0.00 | 0.00 | 0.00 | 61 | 100.9 |
| 20260503130104 | 51 | 352 | 2.0 | 5.0 | 0.00 | 0.00 | 0.00 | 62 | 101.0 |
| 20260503120104 | 49 | 307 | 1.0 | 2.0 | 0.00 | 0.00 | 0.00 | 68 | 101.1 |
| 20260503110104 | 51 | 263 | 1.0 | 1.0 | 0.00 | 0.00 | 0.00 | 61 | 101.2 |
| 20260503100104 | 52 | 352 | 0.0 | 1.0 | 0.00 | 0.00 | 0.00 | 57 | 101.2 |
| 20260503090104 | 53 | 92 | 1.0 | 1.0 | 0.00 | 0.00 | 0.00 | 52 | 101.3 |
| 20260503081104 | 54 | 51 | 1.0 | 2.0 | 0.00 | 0.00 | 0.00 | 51 | 101.3 |
| 20260503080104 | 54 | 79 | 2.0 | 3.0 | 0.00 | 0.00 | 0.00 | 51 | 101.3 |
| 20260503072104 | 52 | 59 | 1.0 | 1.0 | 0.00 | 0.00 | 0.00 | 54 | 101.3 |
| 20260503071104 | 52 | 53 | 0.0 | 1.0 | 0.00 | 0.00 | 0.00 | 54 | 101.3 |
| 20260503070104 | 52 | 51 | 0.0 | 1.0 | 0.00 | 0.00 | 0.00 | 54 | 101.3 |